Location: Dos Palmas
(32.4468°N, 116.8732°W)
Time: 20:27:32
(UTC+00:00)

N. Korean satellite - Pass Details

Date: 07 December 2022
Orbit: 407 x 442 km, 97.3° (Epoch: 05 February)

Event Time Altitude Azimuth Distance (km) Brightness Sun altitude
Rises 14:00:41 0° 345° (NNW) 2,487 9.8 -7.6°
Reaches altitude 10° 14:03:55 10° 312° (NW) 1,594 8.6 -7.0°
Maximum altitude 14:05:07 12° 291° (WNW) 1,494 8.3 -6.8°
Drops below altitude 10° 14:06:19 10° 270° (W) 1,579 8.6 -6.5°
Sets 14:09:29 0° 236° (SW) 2,428 9.8 -5.9°
